GEFSSE_con_cape1000_222.txt.gz
Probability
13 32 35 35 39 42 48 48 45 48 45 45 42 39 42 42 39 35 39 35 23 23 23 26 19 16 13 19 19 13 10 10 13 16 16 16 10 6 10 6 0 0 10
19 32 35 35 39 39 42 42 42 42 35 39 42 39 39 35 32 29 32 35 32 26 23 16 16 13 13 19 16 16 16 6 13 10 16 13 10 10 13 10 10 0 10
32 32 35 35 39 39 39 45 42 42 42 42 39 32 32 29 29 26 23 26 23 26 10 13 16 13 10 6 10 10 6 13 10 6 6 0 0 3 10 10 10 6 10
26 32 32 39 39 39 35 35 39 39 39 39 32 29 29 26 23 23 23 19 16 16 13 10 6 10 10 6 6 6 6 6 10 3 0 0 0 0 6 6 10 10 6
19 29 32 35 32 35 35 35 32 35 35 32 29 29 26 26 23 23 23 23 16 19 13 13 10 3 6 6 10 3 3 3 0 0 0 0 0 3 13 10 13 10 10
19 19 26 29 32 32 32 32 29 26 26 26 29 26 26 23 19 19 19 19 16 16 13 6 10 3 3 3 3 3 6 6 0 0 0 0 3 3 3 13 19 16 10
19 19 19 23 23 23 23 23 23 23 23 23 26 26 26 19 16 16 16 19 16 13 6 3 6 6 6 3 3 3 3 3 0 0 0 0 0 3 6 10 19 16 13
16 16 19 23 23 23 23 23 19 19 19 23 23 23 23 19 19 16 16 19 19 13 6 6 3 3 3 6 3 3 3 0 0 0 0 0 0 6 6 6 6 10 16
16 16 16 16 16 19 19 19 19 19 19 19 19 19 16 16 16 10 10 13 13 10 10 6 6 3 3 3 3 3 3 0 0 0 0 0 0 3 6 10 3 3 3
13 16 16 16 16 13 16 19 19 19 19 19 16 13 10 10 13 10 10 10 10 10 10 10 6 6 3 3 3 3 3 0 0 0 0 0 0 3 13 13 10 6 10
13 10 10 13 10 6 10 16 13 13 13 13 10 6 6 3 3 3 3 6 6 6 10 10 6 6 0 0 3 3 3 0 0 0 0 0 0 6 6 13 19 16 6
10 10 10 6 6 3 6 6 6 6 10 6 6 3 3 0 0 0 0 0 3 3 3 3 6 0 0 0 0 0 0 0 0 0 0 0 0 6 6 6 13 13 10
6 6 6 6 6 3 3 6 6 0 0 3 3 3 3 0 0 0 0 0 0 0 0 0 0 0 0 0 0 0 0 0 0 0 0 0 3 3 6 6 10 13 10
3 3 3 3 3 3 6 3 3 0 0 0 0 3 3 0 0 0 0 0 0 0 0 0 0 0 0 0 0 0 0 0 0 0 0 0 0 3 3 3 10 13 13
3 3 3 3 3 3 3 3 3 0 0 0 0 0 3 0 0 0 0 0 0 0 0 0 0 0 0 0 0 0 0 0 0 0 0 0 0 0 3 3 6 10 10
3 3 0 3 3 3 3 3 3 0 0 0 0 0 0 0 0 0 0 0 0 0 0 0 0 0 0 0 0 0 0 0 0 0 0 0 0 0 3 3 3 6 6
6 3 0 3 3 3 0 0 0 0 0 0 0 0 0 0 0 0 0 0 0 0 0 0 0 0 0 0 0 0 0 0 0 0 0 0 0 0 0 0 3 3 3
6 3 3 3 3 3 0 0 0 0 0 0 0 0 0 0 0 0 0 0 0 0 0 0 0 0 0 0 0 0 0 0 0 0 0 0 0 0 0 0 0 3 3
0 3 0 0 3 3 0 0 0 0 0 0 0 0 0 0 0 0 0 0 0 0 0 0 0 0 0 0 0 0 0 0 0 0 0 0 0 0 0 0 0 0 0
0 0 3 0 0 0 0 0 0 0 0 0 0 0 0 0 0 0 0 0 0 0 0 0 0 0 0 0 0 0 0 0 0 0 0 0 0 0 0 0 0 0 0
0 0 3 0 0 0 0 0 0 0 0 0 0 0 0 0 0 0 0 0 0 0 0 0 0 0 0 0 0 0 0 0 0 0 0 0 0 0 0 0 0 0 0
0 0 0 0 0 0 0 0 0 0 0 0 0 0 0 0 0 0 0 0 0 0 0 0 0 0 0 0 0 0 0 0 0 0 0 0 0 0 0 0 0 0 0
0 0 0 0 0 0 0 0 0 0 0 0 0 0 0 0 0 0 0 0 0 0 0 0 0 0 0 0 0 0 0 0 0 0 0 0 0 0 0 0 0 0 0
0 0 0 0 0 0 0 0 0 0 0 0 0 0 0 0 0 0 0 0 0 0 0 0 0 0 0 0 0 0 0 0 0 0 0 0 0 0 0 0 0 0 0
0 0 0 0 0 0 0 0 0 0 0 0 0 0 0 0 0 0 0 0 0 0 0 0 0 0 0 0 0 0 0 0 0 0 0 0 0 0 0 0 0 0 0
0 0 0 0 0 0 0 0 0 0 0 0 0 0 0 0 0 0 0 0 0 0 0 0 0 0 0 0 0 0 0 0 0 0 0 0 0 0 0 0 0 0 0

GEFSSE_con_cape1000_228.txt.gz
Probability
3 19 35 39 48 52 48 48 48 45 42 42 45 39 35 29 29 26 26 23 26 19 19 23 13 10 13 19 13 19 16 23 19 19 19 16 16 10 6 13 10 6 6
6 23 35 42 48 48 48 48 48 42 42 39 39 39 35 32 29 26 23 16 19 23 23 13 10 6 10 13 10 6 6 6 10 13 10 10 16 3 6 10 16 10 13
13 35 35 42 42 42 42 42 45 35 39 39 39 35 35 32 29 23 26 23 23 16 13 10 10 10 10 10 10 6 3 3 3 3 3 0 3 3 3 10 13 13 13
26 35 35 42 45 42 45 42 39 39 39 39 35 35 29 29 29 26 26 23 16 10 10 10 10 3 3 3 3 3 0 0 3 0 0 0 0 3 3 10 10 10 13
26 32 32 42 42 42 42 39 39 39 35 32 29 29 26 26 23 23 23 23 16 13 6 6 6 6 6 6 6 6 6 3 0 0 0 0 0 0 6 10 10 16 16
26 32 32 35 39 42 39 39 39 39 39 35 29 29 23 23 23 26 23 23 16 16 16 13 6 3 3 3 3 6 3 0 0 0 0 0 0 3 3 3 3 3 10
19 26 32 35 35 35 35 39 39 39 39 35 26 26 26 19 19 19 19 19 16 13 16 6 6 3 3 3 6 3 3 0 0 0 0 0 0 3 0 6 6 6 6
16 16 29 35 32 35 32 32 32 32 29 29 26 23 23 23 19 19 16 19 19 6 6 3 3 3 3 3 6 3 3 0 0 0 0 0 3 6 3 10 13 13 13
16 16 16 23 26 26 29 29 23 23 26 26 26 26 23 19 19 16 16 16 13 6 6 6 6 6 3 3 3 3 3 0 0 0 0 0 3 3 6 6 3 6 6
13 16 16 16 13 16 16 16 16 16 16 19 19 19 13 13 10 10 6 10 10 3 3 6 6 6 3 3 3 3 0 0 0 0 0 0 0 0 6 6 6 3 3
13 13 16 16 10 13 13 16 13 16 16 13 10 10 10 6 6 6 10 10 10 6 3 0 0 0 0 0 0 0 0 0 0 0 0 0 0 0 3 6 6 6 10
13 13 13 13 10 10 10 10 10 6 6 6 6 3 3 0 0 0 3 3 6 3 0 0 0 0 0 0 0 0 0 0 0 0 0 0 3 3 3 3 3 6 6
13 13 13 10 10 10 10 6 6 6 6 6 3 3 3 0 0 0 0 0 0 0 0 0 0 0 0 0 0 0 0 0 0 0 0 0 0 3 3 3 3 3 6
13 13 13 10 10 6 6 6 6 6 6 6 3 3 3 0 0 0 0 0 0 0 0 0 0 0 0 0 0 0 0 0 0 0 0 0 0 0 3 3 3 3 3
6 10 3 3 3 6 6 6 6 6 6 3 0 0 0 0 0 0 0 0 0 0 0 0 0 0 0 0 0 0 0 0 0 0 0 0 0 0 0 3 3 3 3
6 6 3 3 3 3 3 6 6 6 6 3 0 0 0 0 0 0 0 0 0 0 0 0 0 0 0 0 0 0 0 0 0 0 0 0 0 0 0 0 0 3 3
3 3 0 0 0 3 3 0 6 6 3 0 0 0 0 0 0 0 0 0 0 0 0 0 0 0 0 0 0 0 0 0 0 0 0 0 0 0 0 0 0 0 0
6 3 0 0 0 0 0 0 6 0 0 0 0 0 0 0 0 0 0 0 0 0 0 0 0 0 0 0 0 0 0 0 0 0 0 0 0 0 0 0 0 0 0
0 0 0 0 0 0 0 0 0 0 0 0 0 0 0 0 0 0 0 0 0 0 0 0 0 0 0 0 0 0 0 0 0 0 0 0 0 0 0 0 0 0 0
0 0 0 0 0 0 0 0 0 0 0 0 0 0 0 0 0 0 0 0 0 0 0 0 0 0 0 0 0 0 0 0 0 0 0 0 0 0 0 0 0 0 0
0 0 0 0 0 3 3 0 0 0 0 0 0 0 0 0 0 0 0 0 0 0 0 0 0 0 0 0 0 0 0 0 0 0 0 0 0 0 0 0 0 0 0
3 3 0 0 0 3 3 0 0 0 0 0 0 0 0 0 0 0 0 0 0 0 0 0 0 0 0 0 0 0 0 0 0 0 0 0 0 0 0 0 0 0 0
0 0 0 0 0 3 0 0 0 0 0 0 0 0 0 0 0 0 0 0 0 0 0 0 0 0 0 0 0 0 0 0 0 0 0 0 0 0 0 0 0 0 0
0 0 0 0 0 0 0 0 0 0 0 0 0 0 0 0 0 0 0 0 0 0 0 0 0 0 0 0 0 0 0 0 0 0 0 0 0 0 0 0 0 0 0
0 0 0 0 0 3 3 3 0 0 0 0 0 0 0 0 0 0 0 0 0 0 0 0 0 0 0 0 0 0 0 0 0 0 0 0 0 0 0 0 0 0 0
0 0 0 0 0 0 0 3 0 0 0 0 0 0 0 0 0 0 0 0 0 0 0 0 0 0 0 0 0 0 0 0 0 0 0 0 0 0 0 0 0 0 0

GEFSSE_con_cape1000_234.txt.gz
Probability
19 32 32 48 58 58 55 55 52 55 48 35 35 32 32 32 32 29 29 26 23 26 26 26 23 19 19 13 10 13 16 19 16 13 13 13 10 10 6 6 6 10 10
23 32 42 55 55 52 52 52 52 55 45 39 39 29 29 29 29 29 26 23 23 23 23 19 19 16 13 16 10 6 6 13 10 10 13 10 6 3 6 10 16 10 10
29 39 42 55 55 55 52 52 52 45 39 35 29 29 29 32 29 29 26 23 23 16 13 10 13 13 13 13 10 10 6 6 6 6 6 0 0 3 6 13 13 16 16
32 39 42 48 48 48 48 45 45 39 42 39 35 35 35 35 32 32 26 19 16 16 16 13 10 10 10 13 13 10 6 6 3 0 0 0 0 0 6 13 13 13 10
32 39 42 45 45 45 42 42 42 39 35 35 35 32 29 29 29 29 16 13 13 16 13 10 6 6 6 6 6 10 6 0 3 0 0 0 3 3 0 3 6 6 3
32 35 39 45 45 45 45 39 39 39 39 35 35 29 26 26 26 26 26 23 16 13 6 6 6 6 6 6 6 6 3 0 0 0 0 0 3 3 0 3 3 3 0
29 32 39 42 45 45 39 39 39 39 35 32 29 26 26 23 26 26 26 26 19 13 10 6 6 6 6 6 6 3 3 0 0 3 6 10 3 6 3 3 6 6 6
29 32 39 39 39 39 35 35 35 35 35 29 32 29 23 23 23 19 23 19 13 10 6 3 3 3 6 6 3 3 0 0 0 6 6 6 3 3 10 6 6 6 3
29 32 39 39 35 32 32 32 32 32 29 29 26 19 19 16 23 19 19 16 13 13 6 6 3 3 6 3 3 0 0 0 3 6 3 6 6 6 3 6 6 3 3
32 32 32 32 32 32 29 26 26 26 26 23 16 13 13 16 19 10 10 10 10 3 3 6 3 0 0 0 0 0 0 0 3 3 6 6 3 3 3 3 6 6 6
26 26 26 26 26 26 26 19 16 13 10 10 10 6 6 10 3 3 3 3 6 0 0 0 0 0 0 0 0 0 0 3 3 3 3 0 3 3 3 3 3 6 6
16 19 26 26 19 19 16 16 13 13 13 16 10 10 6 6 6 0 0 0 3 0 0 0 0 0 0 0 0 0 0 0 0 0 0 0 0 0 3 3 3 3 3
10 16 19 19 16 19 13 13 13 16 16 16 13 6 6 6 3 0 0 0 0 0 0 0 0 0 0 0 0 0 0 0 0 0 0 0 0 0 0 3 3 3 3
13 13 16 16 16 16 13 13 13 13 13 13 10 6 6 3 3 3 0 0 3 0 0 0 0 0 0 0 0 0 0 0 0 0 0 0 0 0 0 0 0 3 3
13 13 13 13 13 10 10 10 10 13 10 10 10 3 3 3 0 0 0 0 3 3 0 0 0 0 0 0 0 0 0 0 0 0 0 0 0 0 0 0 0 0 0
13 13 13 13 13 10 6 6 6 6 10 10 6 6 3 3 0 0 0 0 0 0 0 0 0 0 0 0 0 0 0 0 0 0 0 0 0 0 0 0 0 0 0
13 13 13 13 13 6 6 6 6 6 6 10 6 6 3 3 3 0 0 0 0 0 0 0 0 0 0 0 0 0 0 0 0 0 0 0 0 0 0 0 0 0 0
10 13 10 10 10 10 6 6 6 6 10 10 10 6 3 3 3 0 0 0 0 0 0 0 0 0 0 0 0 0 0 0 0 0 0 0 0 0 0 0 0 0 0
3 6 10 10 10 10 6 6 6 6 6 10 6 6 3 0 0 0 0 0 0 0 0 0 0 0 0 0 0 0 0 0 0 0 0 0 0 0 0 0 0 0 0
3 3 6 6 10 10 6 6 6 6 6 10 6 6 0 0 0 0 0 0 0 0 0 0 0 0 0 0 0 0 0 0 0 0 0 0 0 0 0 0 0 0 0
3 3 3 3 3 6 6 6 6 6 6 6 6 3 0 0 0 0 0 0 0 0 0 0 0 0 0 0 0 0 0 0 0 0 0 0 0 0 0 0 0 0 0
3 3 3 3 3 0 3 3 3 3 6 6 6 3 0 0 0 0 0 0 0 0 0 0 0 0 0 0 0 0 0 0 0 0 0 0 0 0 0 0 0 0 0
3 3 3 3 3 0 3 3 3 3 0 0 3 3 0 0 0 0 0 0 0 0 0 0 0 0 0 0 0 0 0 0 0 0 0 0 0 0 0 0 0 0 0
3 3 3 3 3 3 0 3 3 3 3 0 0 0 0 0 0 0 0 0 0 0 0 0 0 0 0 0 0 0 0 0 0 0 0 0 0 0 0 0 0 0 0
3 3 3 3 3 3 0 0 3 3 3 3 3 0 0 0 0 0 0 0 0 0 0 0 0 0 0 0 0 0 0 0 0 0 0 0 0 0 0 0 0 0 0
3 3 3 3 3 0 0 0 0 3 3 3 3 0 0 0 0 0 0 0 0 0 0 0 0 0 0 0 0 0 0 0 0 0 0 0 0 0 0 0 0 0 0

GEFSSE_con_cape1000_240.txt.gz
Probability
32 39 58 61 58 55 58 55 52 48 52 45 39 42 35 29 29 26 29 29 29 26 26 23 16 16 16 13 13 13 13 10 10 10 10 10 3 6 10 19 6 13 13
39 39 58 58 58 58 52 52 52 48 42 39 42 39 32 32 29 23 26 23 19 19 23 23 19 16 13 16 10 10 10 13 10 10 10 6 13 6 6 13 16 13 13
42 39 55 58 58 55 52 48 48 42 42 39 35 29 29 29 26 23 23 23 23 19 19 19 19 16 16 16 13 10 10 10 13 6 6 0 3 10 6 13 13 13 10
39 32 48 55 55 55 52 48 42 42 42 32 35 32 32 32 29 26 23 23 19 19 16 16 13 13 10 13 13 13 6 6 10 6 0 0 0 10 6 6 13 10 6
39 39 45 55 52 52 45 42 42 39 35 35 39 35 35 29 29 29 26 23 16 16 10 10 10 6 6 6 6 10 6 3 3 3 0 0 0 6 6 3 0 0 0
39 39 45 52 52 48 48 48 48 39 35 35 32 32 29 29 29 19 13 13 10 13 13 6 6 6 6 6 3 3 3 3 0 0 0 0 0 10 3 0 0 3 3
32 35 42 48 48 48 45 45 39 39 39 32 35 29 29 26 26 26 26 16 13 10 6 6 6 6 6 6 6 3 3 0 0 0 3 0 0 6 3 3 3 6 6
35 35 42 48 45 45 45 39 39 39 39 35 29 29 26 26 26 26 23 19 19 6 6 6 6 6 6 3 3 3 3 0 0 0 3 0 6 6 6 6 10 10 6
35 35 39 42 42 39 39 39 35 35 35 32 29 26 29 26 23 19 19 19 16 10 10 6 6 6 0 0 0 0 0 0 0 0 3 0 6 6 3 3 3 6 10
29 29 26 32 29 29 26 26 26 26 26 29 19 16 16 16 16 16 10 10 13 13 3 3 3 0 3 0 0 0 0 0 0 3 0 0 0 6 3 3 3 3 6
26 29 26 26 26 26 23 19 16 16 16 13 10 6 3 6 3 3 3 3 3 6 3 0 0 0 0 0 0 0 0 0 0 0 0 0 0 0 0 3 3 3 3
26 23 26 23 23 16 13 6 6 10 6 6 6 0 3 3 0 0 0 0 3 0 0 0 0 0 0 0 0 0 0 0 0 0 0 0 0 0 0 0 0 3 3
16 19 23 23 16 13 6 6 6 6 6 3 6 6 0 0 0 0 0 0 0 0 0 0 0 0 0 0 0 0 0 0 0 0 0 0 0 0 0 0 0 0 3
19 16 13 16 13 10 6 6 3 6 6 3 3 3 3 0 0 0 0 0 0 0 0 0 0 0 0 0 0 0 0 0 0 0 0 0 0 0 0 0 0 0 0
13 13 13 16 13 10 10 10 6 3 3 3 3 3 3 3 0 0 0 0 0 0 0 0 0 0 0 0 0 0 0 0 0 0 0 0 0 0 0 0 0 0 0
13 10 10 13 13 10 10 10 6 6 10 10 3 3 3 3 3 0 0 0 0 0 0 0 0 0 0 0 0 0 0 0 0 0 0 0 0 0 0 0 0 0 0
13 10 10 10 13 10 10 6 6 6 10 3 3 3 3 3 3 0 0 0 0 0 0 0 0 0 0 0 0 0 0 0 0 0 0 0 0 0 0 0 0 0 0
6 10 6 10 10 10 10 3 3 3 6 6 6 3 3 3 0 0 0 0 0 0 0 0 0 0 0 0 0 0 0 0 0 0 0 0 0 0 0 0 0 0 0
6 6 6 3 6 6 6 3 3 3 6 6 6 3 3 3 0 0 0 0 0 0 0 0 0 0 0 0 0 0 0 0 0 0 0 0 0 0 0 0 0 0 0
6 6 6 6 6 3 3 3 3 3 3 6 6 3 3 3 3 0 0 0 0 0 0 0 0 0 0 0 0 0 0 0 0 0 0 0 0 0 0 0 0 0 0
3 6 6 6 6 3 3 0 3 3 3 3 6 3 3 3 0 0 0 0 0 0 0 0 0 0 0 0 0 0 0 0 0 0 0 0 0 0 0 0 0 0 0
3 3 6 6 6 3 3 3 0 0 0 0 3 3 3 3 0 0 0 0 0 0 0 0 0 0 0 0 0 0 0 0 0 0 0 0 0 0 0 0 0 0 0
3 3 3 3 6 6 3 3 3 0 3 0 0 0 3 0 0 0 0 0 0 0 0 0 0 0 0 0 0 0 0 0 0 0 0 0 0 0 0 0 0 0 0
3 3 3 3 3 3 0 0 0 0 0 0 0 0 0 0 0 0 0 0 0 0 0 0 0 0 0 0 0 0 0 0 0 0 0 0 0 0 0 0 0 0 0
3 3 3 3 3 3 0 0 0 0 0 0 0 0 0 0 0 0 0 0 0 0 0 0 0 0 0 0 0 0 0 0 0 0 0 0 0 0 0 0 0 0 0
3 3 3 3 3 3 0 0 0 0 0 0 0 0 0 0 0 0 0 0 0 0 0 0 0 0 0 0 0 0 0 0 0 0 0 0 0 0 0 0 0 0 0